Regional Weather Roundup
Issued by NWS

Home | Current Version | Previous Version | Graphics & Text | Print | Product List | Glossary Off
Versions: 1 2 3 4 5 6 7 8 9 10 11 12 13 14 15 16 17 18 19 20 21 22 23 24 25 26 27 28 29 30 31 32 33 34 35 36 37 38 39 40 41 42 43 44 45 46 47 48 49 50

000
ASUS43 KTOP 231559
RWRKS

WEATHER ROUNDUP FOR KANSAS
NATIONAL WEATHER SERVICE GOODLAND KS
1100 AM CDT SAT SEP 23 2017

NOTE:  "FAIR" INDICATES FEW OR NO CLOUDS BELOW 12,000 FEET WITH NO
SIGNIFICANT WEATHER AND/OR OBSTRUCTIONS TO VISIBILITY.

KSZ001>006-013>018-027>032-041>047-231700-
NORTHWEST KANSAS

CITY           SKY/WX    TMP DP  RH WIND       PRES   REMARKS
GOODLAND       CLOUDY    59  51  75 NW7       29.94R
HAYS           MOSUNNY   82  65  56 S16G24    29.92R
HILL CITY      MOSUNNY   83  66  56 S16G26    29.90S
RUSSELL        MOSUNNY   83  64  52 S22       29.91R
$$

KSZ061>065-074>080-084>089-231700-
SOUTHWEST KANSAS

CITY           SKY/WX    TMP DP  RH WIND       PRES   REMARKS
DODGE CITY     SUNNY     81  64  56 S23G31    29.94R
ELKHART          N/A     73  65  76 S22         N/A
GARDEN CITY    MOSUNNY   81  64  56 S26G32    29.92R
GREAT BEND     SUNNY     83  66  56 S22G28    29.93S
LIBERAL        SUNNY     79  66  64 S24       29.94R
$$

KSZ066>073-081>083-090>101-231700-
SOUTHEAST KANSAS

CITY           SKY/WX    TMP DP  RH WIND       PRES   REMARKS
CHANUTE        SUNNY     83  69  62 S12       30.04S
COFFEYVILLE    SUNNY     83  70  64 S10       30.03R
HUTCHINSON     SUNNY     84  66  54 S20G28    29.97R
MEDICINE LODGE   N/A     82  64  54 S17G24    29.94S
NEWTON         SUNNY     82  67  60 S18       30.00R
PARSONS        SUNNY     83  68  60 S7        30.05R
WICHITA INTL   MOSUNNY   84  67  56 S17G25    29.98S
WICHITA JABRA  SUNNY     81  69  67 S15       29.99S
WINFIELD       SUNNY     83  69  62 S17G23    30.01S
$$

KSZ007>012-019>026-033>040-048>060-102>105-231700-
NORTHEAST KANSAS

CITY           SKY/WX    TMP DP  RH WIND       PRES   REMARKS
CONCORDIA      MOSUNNY   82  68  62 S20G26    29.94R
EMPORIA        SUNNY     81  67  62 S15       30.02R
LAWRENCE       SUNNY     83  70  64 SE9       30.03R
MANHATTAN      SUNNY     86  67  52 S14G25    29.98R
OLATHE IND     SUNNY     83  70  64 S12       30.05R
OLATHE EXE     SUNNY     82  70  66 SW9       30.05S
SALINA         SUNNY     87  64  46 S21G29    29.95S
TOPEKA BILLARD SUNNY     84  69  60 S9        30.02R
TOPEKA FORBES  SUNNY     85  69  58 S13       30.02R
$$




USA.gov is the U.S. government's official web portal to all federal, state and local government web resources and services.